Weather History for Newburgh, NY

Change the Weather History Date:

Friday, February 15, 2013

  Actual Average Record
Temperature  
Mean Temperature 39 °F -  
Max Temperature 50 °F 36 °F 37 °F (2014)
Min Temperature 28 °F 19 °F 21 °F (2014)
Degree Days  
Heating Degree Days 26    
Moisture  
Dew Point 28 °F    
Average Humidity 64    
Maximum Humidity 93    
Minimum Humidity 43    
Precipitation  
Precipitation 0.00 in - - ()
Sea Level Pressure  
Sea Level Pressure 29.95 in    
Wind  
Wind Speed 7 mph (WSW)    
Max Wind Speed 17 mph    
Max Gust Speed 17 mph    
Visibility 15 miles    
Events Rain , Snow    
Averages and records for this station are not official NWS values.
T = Trace of Precipitation, MM = Missing Value Source: NWS Daily Summary

Daily Weather History Graph

Daily Weather History Graph

Search for Another Location

Airport:

Trip Planner

Search our weather history database for the weather conditions in past years. The results will help you decide how hot, cold, wet, or windy it might be!

Date:

Astronomy

Feb. 15, 2013 Rise Set
Actual Time 6:51 AM EST 5:30 PM EST
Civil Twilight 6:22 AM EST 5:58 PM EST
Nautical Twilight 5:50 AM EST 6:31 PM EST
Astronomical Twilight 5:18 AM EST 7:03 PM EST
Moon 9:21 AM EST (2/15) 11:34 PM EST (2/15)
Length of Visible Light 11h 35m
Length of Day
10h 39m
Waxing Crescent, 30% of the Moon is Illuminated
Feb 15
Waxing Crescent
Feb 17
First Quarter
Feb 25
Full
Mar 4
Last Quarter
Mar 11
New

Hourly Weather History & Observations

Time (EST) Temp. Windchill Dew Point Humidity Pressure Visibility Wind Dir Wind Speed Gust Speed Precip Events Conditions
12:45 AM 33.8 °F 29.6 °F 24.8 °F 70% 29.97 in 15.0 mi SW 4.6 mph - N/A   Overcast
1:45 AM 33.8 °F 29.6 °F 24.8 °F 70% 29.97 in 10.0 mi SSE 4.6 mph - N/A   Overcast
3:55 AM 33.8 °F - 26.6 °F 75% 29.96 in 10.0 mi Calm Calm - N/A   Mostly Cloudy
4:50 AM 33.8 °F - 26.6 °F 75% 29.95 in 10.0 mi Calm Calm - N/A   Mostly Cloudy
5:45 AM 30.2 °F - 24.8 °F 80% 29.96 in 15.0 mi Calm Calm - N/A   Scattered Clouds
6:55 AM 28.4 °F - 24.8 °F 86% 29.96 in 20.0 mi Calm Calm - N/A   Scattered Clouds
7:50 AM 35.6 °F 31.7 °F 26.6 °F 70% 29.97 in 20.0 mi West 4.6 mph - N/A   Scattered Clouds
8:50 AM 37.4 °F 28.9 °F 28.4 °F 70% 29.99 in 20.0 mi West 13.8 mph - N/A   Scattered Clouds
9:45 AM 39.2 °F 31.2 °F 30.2 °F 70% 29.99 in 20.0 mi West 13.8 mph - N/A   Scattered Clouds
10:50 AM 42.8 °F 35.8 °F 33.8 °F 70% 29.97 in 20.0 mi West 13.8 mph - N/A   Clear
11:45 AM 46.4 °F 39.5 °F 30.2 °F 53% 29.95 in 20.0 mi West 17.3 mph - N/A   Clear
12:45 PM 48.2 °F - 30.2 °F 50% 29.93 in 20.0 mi SW 17.3 mph - N/A   Clear
1:45 PM 48.2 °F - 30.2 °F 50% 29.91 in 20.0 mi SW 17.3 mph - N/A   Clear
2:45 PM 50.0 °F - 30.2 °F 47% 29.90 in 20.0 mi West 13.8 mph - N/A   Clear
3:45 PM 50.0 °F - 30.2 °F 47% 29.90 in 20.0 mi WSW 11.5 mph 17.3 mph N/A   Partly Cloudy
4:45 PM 50.0 °F - 28.4 °F 43% 29.91 in 20.0 mi WSW 11.5 mph - N/A   Scattered Clouds
5:45 PM 44.6 °F 38.8 °F 24.8 °F 46% 29.93 in 10.0 mi WNW 11.5 mph - N/A   Scattered Clouds
6:45 PM 41.0 °F 38.0 °F 26.6 °F 57% 29.93 in 10.0 mi Variable 4.6 mph - N/A   Scattered Clouds
7:45 PM 39.2 °F - 26.6 °F 61% 29.93 in 10.0 mi Calm Calm - N/A   Overcast
8:45 PM 41.0 °F - 24.8 °F 53% 29.93 in 10.0 mi Calm Calm - N/A   Overcast
9:45 PM 39.2 °F - 26.6 °F 61% 29.94 in 10.0 mi Calm Calm - N/A   Overcast
10:45 PM 39.2 °F 31.2 °F 30.2 °F 70% 29.97 in 5.0 mi NW 13.8 mph - N/A Rain Light Rain
11:50 PM 33.8 °F 27.7 °F 32.0 °F 93% 29.98 in 3.0 mi North 6.9 mph - N/A Snow Light Snow